Change the Weather History Date:

Friday, December 27, 2013

  Actual Average Record
Temperature  
Mean Temperature -8 °F -  
Max Temperature -7 °F 8 °F 37 °F (2001)
Min Temperature -9 °F 0 °F -20 °F (1999)
Degree Days  
Heating Degree Days 73    
Moisture  
Dew Point -17 °F    
Average Humidity 69    
Maximum Humidity 77    
Minimum Humidity 65    
Precipitation  
Precipitation 0.00 in - - ()
Sea Level Pressure  
Sea Level Pressure 30.07 in    
Wind  
Wind Speed 13 mph (NNE)    
Max Wind Speed 16 mph    
Max Gust Speed 26 mph    
Visibility 10 miles    
Events      
Averages and records for this station are not official NWS values.
T = Trace of Precipitation, MM = Missing Value Source: NWS Daily Summary

Daily Weather History Graph

Daily Weather History Graph

Search for Another Location

Airport or City:

Trip Planner

Search our weather history database for the weather conditions in past years. The results will help you decide how hot, cold, wet, or windy it might be!

Date:

Astronomy

Dec. 27, 2013 Rise Set
Actual Time 11:53 AM AKST 3:38 PM AKST
Civil Twilight 10:28 AM AKST 5:03 PM AKST
Nautical Twilight 9:16 AM AKST 6:15 PM AKST
Astronomical Twilight 8:14 AM AKST 7:17 PM AKST
Moon 5:00 AM AKST (12/27) 1:26 PM AKST (12/27)
Length of Visible Light 6h 34m
Length of Day
3h 44m
Waning Crescent, 27% of the Moon is Illuminated
Dec 27
Waning Crescent
Jan 1
New
Jan 7
First Quarter
Jan 15
Full
Jan 23
Last Quarter

Hourly Weather History & Observations

Time (AKST) Temp. Windchill Dew Point Humidity Pressure Visibility Wind Dir Wind Speed Gust Speed Precip Events Conditions
12:16 AM -7.6 °F -29.1 °F -16.6 °F 65% 30.08 in 10.0 mi NNE 15.0 mph 20.7 mph N/A   Clear
12:36 AM -9.4 °F -30.6 °F -16.6 °F 71% 30.09 in 10.0 mi North 13.8 mph 19.6 mph N/A   Clear
12:56 AM -9.4 °F -31.4 °F -16.6 °F 71% 30.09 in 10.0 mi NNE 15.0 mph 21.9 mph N/A   Clear
1:16 AM -7.6 °F -28.3 °F -14.8 °F 71% 30.09 in 10.0 mi NNE 13.8 mph 24.2 mph N/A   Clear
1:36 AM -7.6 °F -27.5 °F -16.6 °F 65% 30.09 in 10.0 mi NNE 12.7 mph 23.0 mph N/A   Clear
1:56 AM -7.6 °F -27.5 °F -16.6 °F 65% 30.09 in 10.0 mi NNE 12.7 mph 19.6 mph N/A   Clear
2:16 AM -7.6 °F -29.1 °F -16.6 °F 65% 30.09 in 10.0 mi NNE 15.0 mph 20.7 mph N/A   Clear
2:36 AM -7.6 °F -29.1 °F -14.8 °F 71% 30.09 in 10.0 mi NNE 15.0 mph 21.9 mph N/A   Clear
2:56 AM -7.6 °F -28.3 °F -16.6 °F 65% 30.09 in 10.0 mi NNE 13.8 mph 21.9 mph N/A   Clear
3:16 AM -7.6 °F -28.3 °F -16.6 °F 65% 30.09 in 10.0 mi NNE 13.8 mph 24.2 mph N/A   Clear
3:36 AM -9.4 °F -29.8 °F -16.6 °F 71% 30.10 in 10.0 mi NNE 12.7 mph 19.6 mph N/A   Clear
3:56 AM -7.6 °F -24.6 °F -16.6 °F 65% 30.10 in 10.0 mi North 9.2 mph 19.6 mph N/A   Clear
4:16 AM -7.6 °F -24.6 °F -16.6 °F 65% 30.11 in 10.0 mi NNE 9.2 mph 17.3 mph N/A   Clear
4:36 AM -7.6 °F -27.5 °F -16.6 °F 65% 30.11 in 10.0 mi NNE 12.7 mph 19.6 mph N/A   Clear
4:56 AM -7.6 °F -27.5 °F -16.6 °F 65% 30.10 in 10.0 mi NNE 12.7 mph 19.6 mph N/A   Clear
5:16 AM -7.6 °F -28.3 °F -16.6 °F 65% 30.10 in 10.0 mi NNE 13.8 mph 19.6 mph N/A   Clear
5:36 AM -7.6 °F -28.3 °F -16.6 °F 65% 30.10 in 10.0 mi NNE 13.8 mph 19.6 mph N/A   Clear
5:56 AM -7.6 °F -28.3 °F -16.6 °F 65% 30.10 in 10.0 mi NNE 13.8 mph 19.6 mph N/A   Clear
6:16 AM -7.6 °F -28.3 °F -16.6 °F 65% 30.10 in 10.0 mi NNE 13.8 mph 20.7 mph N/A   Clear
6:36 AM -7.6 °F -27.5 °F -16.6 °F 65% 30.11 in 10.0 mi NNE 12.7 mph 23.0 mph N/A   Clear
6:56 AM -7.6 °F -26.6 °F -16.6 °F 65% 30.10 in 10.0 mi NNE 11.5 mph 19.6 mph N/A   Clear
7:16 AM -7.6 °F -26.6 °F -16.6 °F 65% 30.10 in 10.0 mi NNE 11.5 mph 18.4 mph N/A   Clear
7:36 AM -9.4 °F -30.6 °F -18.4 °F 65% 30.10 in 10.0 mi NNE 13.8 mph 19.6 mph N/A   Clear
7:56 AM -9.4 °F -29.8 °F -16.6 °F 71% 30.09 in 10.0 mi NNE 12.7 mph 19.6 mph N/A   Clear
8:16 AM -9.4 °F -31.4 °F -16.6 °F 71% 30.08 in 10.0 mi NNE 15.0 mph 21.9 mph N/A   Clear
8:36 AM -9.4 °F -30.6 °F -16.6 °F 71% 30.08 in 10.0 mi NNE 13.8 mph 23.0 mph N/A   Clear
8:56 AM -9.4 °F -32.1 °F -16.6 °F 71% 30.07 in 10.0 mi NNE 16.1 mph 19.6 mph N/A   Clear
9:16 AM -9.4 °F -30.6 °F -16.6 °F 71% 30.08 in 10.0 mi NNE 13.8 mph 20.7 mph N/A   Clear
9:36 AM -9.4 °F -30.6 °F -16.6 °F 71% 30.09 in 10.0 mi NNE 13.8 mph 20.7 mph N/A   Clear
9:56 AM -9.4 °F -28.9 °F -16.6 °F 71% 30.10 in 10.0 mi NNE 11.5 mph 21.9 mph N/A   Clear
10:16 AM -9.4 °F -30.6 °F -16.6 °F 71% 30.09 in 10.0 mi NE 13.8 mph 19.6 mph N/A   Clear
10:36 AM -7.6 °F -26.6 °F -14.8 °F 71% 30.09 in 10.0 mi NE 11.5 mph 23.0 mph N/A   Clear
10:56 AM -9.4 °F -30.6 °F -18.4 °F 65% 30.10 in 10.0 mi NNE 13.8 mph 20.7 mph N/A   Clear
11:16 AM -9.4 °F -28.9 °F -16.6 °F 71% 30.10 in 10.0 mi North 11.5 mph 18.4 mph N/A   Clear
11:36 AM -9.4 °F -30.6 °F -16.6 °F 71% 30.10 in 10.0 mi NNE 13.8 mph 18.4 mph N/A   Clear
11:56 AM -9.4 °F -28.9 °F -16.6 °F 71% 30.10 in 10.0 mi NNE 11.5 mph 19.6 mph N/A   Clear
12:16 PM -9.4 °F -28.9 °F -16.6 °F 71% 30.10 in 10.0 mi NNE 11.5 mph 18.4 mph N/A   Clear
12:36 PM -9.4 °F -27.9 °F -16.6 °F 71% 30.10 in 10.0 mi NNE 10.4 mph 20.7 mph N/A   Clear
12:56 PM -7.6 °F -25.7 °F -16.6 °F 65% 30.10 in 10.0 mi NNE 10.4 mph 18.4 mph N/A   Clear
1:16 PM -7.6 °F -27.5 °F -16.6 °F 65% 30.10 in 10.0 mi NNE 12.7 mph 17.3 mph N/A   Clear
1:36 PM -7.6 °F -25.7 °F -16.6 °F 65% 30.09 in 10.0 mi NNE 10.4 mph 16.1 mph N/A   Clear
1:56 PM -7.6 °F -25.7 °F -16.6 °F 65% 30.10 in 10.0 mi North 10.4 mph 18.4 mph N/A   Clear
2:16 PM -7.6 °F -24.6 °F -16.6 °F 65% 30.09 in 10.0 mi North 9.2 mph 19.6 mph N/A   Clear
2:36 PM -7.6 °F -23.4 °F -16.6 °F 65% 30.09 in 10.0 mi NNE 8.1 mph - N/A   Clear
2:56 PM -7.6 °F -24.6 °F -14.8 °F 71% 30.07 in 10.0 mi NNE 9.2 mph 16.1 mph N/A   Clear
3:16 PM -7.6 °F -27.5 °F -16.6 °F 65% 30.06 in 10.0 mi NNE 12.7 mph 19.6 mph N/A   Clear
3:36 PM -7.6 °F -25.7 °F -16.6 °F 65% 30.06 in 10.0 mi NNE 10.4 mph 19.6 mph N/A   Clear
3:56 PM -7.6 °F -26.6 °F -16.6 °F 65% 30.06 in 10.0 mi NNE 11.5 mph 18.4 mph N/A   Clear
4:16 PM -9.4 °F -27.9 °F -16.6 °F 71% 30.06 in 10.0 mi NNE 10.4 mph 19.6 mph N/A   Clear
4:36 PM -9.4 °F -27.9 °F -16.6 °F 71% 30.07 in 10.0 mi NNE 10.4 mph - N/A   Clear
4:56 PM -9.4 °F -28.9 °F -16.6 °F 71% 30.06 in 10.0 mi NNE 11.5 mph 19.6 mph N/A   Clear
5:16 PM -9.4 °F -28.9 °F -14.8 °F 77% 30.06 in 10.0 mi NNE 11.5 mph 19.6 mph N/A   Clear
5:36 PM -9.4 °F -28.9 °F -16.6 °F 71% 30.06 in 10.0 mi NNE 11.5 mph 18.4 mph N/A   Clear
5:56 PM -9.4 °F -28.9 °F -16.6 °F 71% 30.06 in 10.0 mi NNE 11.5 mph 19.6 mph N/A   Clear
6:16 PM -9.4 °F -28.9 °F -16.6 °F 71% 30.06 in 10.0 mi NNE 11.5 mph 19.6 mph N/A   Clear
6:36 PM -9.4 °F -26.8 °F -18.4 °F 65% 30.05 in 10.0 mi NNE 9.2 mph - N/A   Clear
6:56 PM -9.4 °F -28.9 °F -14.8 °F 77% 30.04 in 10.0 mi NNE 11.5 mph - N/A   Clear
7:16 PM -9.4 °F -31.4 °F -16.6 °F 71% 30.03 in 10.0 mi North 15.0 mph 21.9 mph N/A   Clear
7:36 PM -9.4 °F -32.1 °F -16.6 °F 71% 30.03 in 10.0 mi North 16.1 mph 26.5 mph N/A   Clear
7:56 PM -9.4 °F -31.4 °F -16.6 °F 71% 30.04 in 10.0 mi North 15.0 mph 20.7 mph N/A   Clear
8:16 PM -9.4 °F -30.6 °F -16.6 °F 71% 30.03 in 10.0 mi NNE 13.8 mph 23.0 mph N/A   Clear
8:36 PM -9.4 °F -32.1 °F -18.4 °F 65% 30.03 in 10.0 mi North 16.1 mph 23.0 mph N/A   Clear
8:56 PM -9.4 °F -30.6 °F -16.6 °F 71% 30.03 in 10.0 mi NNE 13.8 mph 21.9 mph N/A   Clear
9:16 PM -9.4 °F -30.6 °F -16.6 °F 71% 30.03 in 10.0 mi North 13.8 mph 21.9 mph N/A   Clear
9:36 PM -9.4 °F -30.6 °F -16.6 °F 71% 30.03 in 10.0 mi North 13.8 mph 21.9 mph N/A   Clear
9:56 PM -9.4 °F -28.9 °F -16.6 °F 71% 30.03 in 10.0 mi NNE 11.5 mph 19.6 mph N/A   Clear
10:16 PM -9.4 °F -30.6 °F -16.6 °F 71% 30.02 in 10.0 mi North 13.8 mph 21.9 mph N/A   Clear
10:36 PM -9.4 °F -27.9 °F -16.6 °F 71% 30.02 in 10.0 mi NNE 10.4 mph 20.7 mph N/A   Clear
10:56 PM -9.4 °F -29.8 °F -16.6 °F 71% 30.02 in 10.0 mi NNE 12.7 mph 18.4 mph N/A   Clear
11:16 PM -9.4 °F -31.4 °F -16.6 °F 71% 30.01 in 10.0 mi NNE 15.0 mph 21.9 mph N/A   Clear
11:36 PM -9.4 °F -28.9 °F -16.6 °F 71% 30.01 in 10.0 mi NNE 11.5 mph 20.7 mph N/A   Clear
11:56 PM -9.4 °F -28.9 °F -16.6 °F 71% 30.00 in 10.0 mi NNE 11.5 mph 20.7 mph N/A   Clear